TimeAKST,TemperatureF,Dew PointF,Humidity,Sea Level PressureIn,VisibilityMPH,Wind Direction,Wind SpeedMPH,Gust SpeedMPH,PrecipitationIn,Events,Conditions,WindDirDegrees,DateUTC
12:16 AM,30.2,28.4,93,29.69,9.0,Calm,Calm,-,N/A,,Clear,0,2013-01-31 09:16:00
12:36 AM,30.2,28.4,93,29.69,10.0,Calm,Calm,-,N/A,,Scattered Clouds,0,2013-01-31 09:36:00
12:56 AM,30.2,28.4,93,29.69,10.0,Calm,Calm,-,N/A,,Mostly Cloudy,0,2013-01-31 09:56:00
1:16 AM,30.2,30.2,100,29.70,10.0,Calm,Calm,-,N/A,,Mostly Cloudy,0,2013-01-31 10:16:00
1:36 AM,30.2,30.2,100,29.70,10.0,Calm,Calm,-,N/A,,Mostly Cloudy,0,2013-01-31 10:36:00
1:56 AM,30.2,30.2,100,29.71,10.0,Calm,Calm,-,N/A,,Overcast,0,2013-01-31 10:56:00
2:16 AM,30.2,30.2,100,29.71,10.0,Calm,Calm,-,N/A,,Scattered Clouds,0,2013-01-31 11:16:00
2:36 AM,30.2,30.2,100,29.71,10.0,Calm,Calm,-,N/A,,Scattered Clouds,0,2013-01-31 11:36:00
2:56 AM,30.2,30.2,100,29.72,10.0,Calm,Calm,-,N/A,,Partly Cloudy,0,2013-01-31 11:56:00
3:16 AM,30.2,30.2,100,29.73,8.0,Calm,Calm,-,N/A,,Scattered Clouds,0,2013-01-31 12:16:00
3:36 AM,30.2,30.2,100,29.73,10.0,Calm,Calm,-,N/A,,Overcast,0,2013-01-31 12:36:00
3:56 AM,30.2,30.2,100,29.73,10.0,Calm,Calm,-,N/A,,Scattered Clouds,0,2013-01-31 12:56:00
4:16 AM,30.2,30.2,100,29.73,7.0,Calm,Calm,-,N/A,,Partly Cloudy,0,2013-01-31 13:16:00
4:36 AM,30.2,30.2,100,29.73,5.0,Calm,Calm,-,N/A,,Clear,0,2013-01-31 13:36:00
4:56 AM,30.2,30.2,100,29.74,8.0,Calm,Calm,-,N/A,,Mostly Cloudy,0,2013-01-31 13:56:00
5:16 AM,30.2,30.2,100,29.74,7.0,Calm,Calm,-,N/A,,Overcast,0,2013-01-31 14:16:00
5:36 AM,30.2,28.4,93,29.75,8.0,Calm,Calm,-,N/A,,Mostly Cloudy,0,2013-01-31 14:36:00
5:56 AM,30.2,28.4,93,29.75,9.0,Calm,Calm,-,N/A,,Mostly Cloudy,0,2013-01-31 14:56:00
6:16 AM,30.2,28.4,93,29.76,4.0,Calm,Calm,-,N/A,,Overcast,0,2013-01-31 15:16:00
6:36 AM,30.2,30.2,100,29.77,0.5,Calm,Calm,-,N/A,,Mostly Cloudy,0,2013-01-31 15:36:00
6:56 AM,30.2,28.4,93,29.77,0.5,Calm,Calm,-,N/A,,Unknown,0,2013-01-31 15:56:00
7:16 AM,30.2,30.2,100,29.77,0.5,Calm,Calm,-,N/A,,Unknown,0,2013-01-31 16:16:00
7:36 AM,30.2,30.2,100,29.77,0.5,Calm,Calm,-,N/A,,Unknown,0,2013-01-31 16:36:00
7:56 AM,30.2,30.2,100,29.78,0.5,Calm,Calm,-,N/A,,Unknown,0,2013-01-31 16:56:00
8:16 AM,30.2,28.4,93,29.78,0.8,Calm,Calm,-,N/A,,Unknown,0,2013-01-31 17:16:00
8:36 AM,30.2,30.2,100,29.79,0.5,Calm,Calm,-,N/A,,Unknown,0,2013-01-31 17:36:00
8:56 AM,30.2,30.2,100,29.79,0.8,Calm,Calm,-,N/A,,Unknown,0,2013-01-31 17:56:00
9:16 AM,30.2,30.2,100,29.80,0.5,Calm,Calm,-,N/A,,Unknown,0,2013-01-31 18:16:00
9:36 AM,30.2,30.2,100,29.81,0.5,Calm,Calm,-,N/A,,Unknown,0,2013-01-31 18:36:00
9:56 AM,30.2,28.4,93,29.81,0.5,Calm,Calm,-,N/A,,Unknown,0,2013-01-31 18:56:00
10:16 AM,30.2,28.4,93,29.82,1.0,Calm,Calm,-,N/A,,Mostly Cloudy,0,2013-01-31 19:16:00
10:36 AM,30.2,28.4,93,29.82,0.5,Calm,Calm,-,N/A,,Mostly Cloudy,0,2013-01-31 19:36:00
10:56 AM,28.4,28.4,100,29.83,0.2,Calm,Calm,-,N/A,,Unknown,0,2013-01-31 19:56:00
11:16 AM,30.2,30.2,100,29.83,0.2,Calm,Calm,-,N/A,,Unknown,0,2013-01-31 20:16:00
11:36 AM,30.2,30.2,100,29.84,0.2,Calm,Calm,-,N/A,,Unknown,0,2013-01-31 20:36:00
11:56 AM,30.2,30.2,100,29.85,0.2,Calm,Calm,-,N/A,,Unknown,0,2013-01-31 20:56:00
12:16 PM,30.2,30.2,100,29.85,0.5,Calm,Calm,-,N/A,,Mostly Cloudy,0,2013-01-31 21:16:00
12:36 PM,30.2,28.4,93,29.85,0.5,Calm,Calm,-,N/A,,Mostly Cloudy,0,2013-01-31 21:36:00
12:56 PM,30.2,30.2,100,29.85,0.8,Calm,Calm,-,N/A,,Mostly Cloudy,0,2013-01-31 21:56:00
1:16 PM,30.2,30.2,100,29.86,0.5,Calm,Calm,-,N/A,,Unknown,0,2013-01-31 22:16:00
1:36 PM,30.2,28.4,93,29.87,0.2,Calm,Calm,-,N/A,,Unknown,0,2013-01-31 22:36:00
1:56 PM,30.2,28.4,93,29.87,0.2,Calm,Calm,-,N/A,,Unknown,0,2013-01-31 22:56:00
2:16 PM,30.2,28.4,93,29.88,0.2,Calm,Calm,-,N/A,,Unknown,0,2013-01-31 23:16:00
2:36 PM,30.2,28.4,93,29.88,0.2,Calm,Calm,-,N/A,,Unknown,0,2013-01-31 23:36:00
2:56 PM,30.2,28.4,93,29.88,0.2,Calm,Calm,-,N/A,,Unknown,0,2013-01-31 23:56:00
3:16 PM,30.2,28.4,93,29.88,0.2,Calm,Calm,-,N/A,,Unknown,0,2013-02-01 00:16:00
3:36 PM,30.2,28.4,93,29.88,0.8,Calm,Calm,-,N/A,,Mostly Cloudy,0,2013-02-01 00:36:00
3:56 PM,30.2,28.4,93,29.89,0.2,Calm,Calm,-,N/A,,Mostly Cloudy,0,2013-02-01 00:56:00
4:16 PM,30.2,30.2,100,29.89,0.5,Calm,Calm,-,N/A,,Mostly Cloudy,0,2013-02-01 01:16:00
4:36 PM,30.2,30.2,100,29.88,0.5,Calm,Calm,-,N/A,,Mostly Cloudy,0,2013-02-01 01:36:00
4:56 PM,30.2,28.4,93,29.88,0.5,Calm,Calm,-,N/A,,Mostly Cloudy,0,2013-02-01 01:56:00
5:16 PM,30.2,28.4,93,29.88,0.5,Calm,Calm,-,N/A,,Mostly Cloudy,0,2013-02-01 02:16:00
5:36 PM,30.2,28.4,93,29.88,1.5,Calm,Calm,-,N/A,,Overcast,0,2013-02-01 02:36:00
6:16 PM,28.4,28.4,100,29.89,0.8,Calm,Calm,-,N/A,,Unknown,0,2013-02-01 03:16:00
6:36 PM,28.4,28.4,100,29.88,1.2,Calm,Calm,-,N/A,,Scattered Clouds,0,2013-02-01 03:36:00
6:56 PM,28.4,26.6,93,29.89,3.0,Calm,Calm,-,N/A,,Mostly Cloudy,0,2013-02-01 03:56:00
7:16 PM,28.4,26.6,93,29.89,5.0,Calm,Calm,-,N/A,,Scattered Clouds,0,2013-02-01 04:16:00
7:36 PM,28.4,26.6,93,29.90,2.5,Calm,Calm,-,N/A,,Partly Cloudy,0,2013-02-01 04:36:00
7:56 PM,28.4,26.6,93,29.91,1.8,Calm,Calm,-,N/A,,Overcast,0,2013-02-01 04:56:00
8:16 PM,28.4,26.6,93,29.90,2.0,Calm,Calm,-,N/A,,Mostly Cloudy,0,2013-02-01 05:16:00
8:36 PM,26.6,26.6,100,29.90,5.0,Calm,Calm,-,N/A,,Partly Cloudy,0,2013-02-01 05:36:00
8:56 PM,26.6,26.6,100,29.91,4.0,Calm,Calm,-,N/A,,Scattered Clouds,0,2013-02-01 05:56:00
9:16 PM,26.6,26.6,100,29.91,3.0,Calm,Calm,-,N/A,,Mostly Cloudy,0,2013-02-01 06:16:00
9:36 PM,26.6,26.6,100,29.91,1.8,Calm,Calm,-,N/A,,Mostly Cloudy,0,2013-02-01 06:36:00
9:56 PM,26.6,26.6,100,29.91,1.2,Calm,Calm,-,N/A,,Scattered Clouds,0,2013-02-01 06:56:00
10:16 PM,28.4,26.6,93,29.92,1.2,Calm,Calm,-,N/A,,Clear,0,2013-02-01 07:16:00
10:36 PM,28.4,26.6,93,29.92,1.2,Calm,Calm,-,N/A,,Clear,0,2013-02-01 07:36:00
10:56 PM,28.4,26.6,93,29.91,1.0,Calm,Calm,-,N/A,,Clear,0,2013-02-01 07:56:00
11:16 PM,28.4,26.6,93,29.91,1.0,Calm,Calm,-,N/A,,Clear,0,2013-02-01 08:16:00
11:36 PM,28.4,28.4,100,29.91,1.2,Calm,Calm,-,N/A,,Scattered Clouds,0,2013-02-01 08:36:00
11:56 PM,28.4,28.4,100,29.92,1.8,Calm,Calm,-,N/A,,Mostly Cloudy,0,2013-02-01 08:56:00